Hourly Weather Srednie Verezi

Today, 7 July, Tuesday

Time Temperature Precipitation Wind Pressure Humidity
00:00 +22°C° 0 mm 1 mps 749 mmHg 87%
01:00 +22°C° 0 mm 1 mps 749 mmHg 87%
02:00 +21°C° 0 mm 1 mps 749 mmHg 88%
03:00 +21°C° 0 mm 1 mps 749 mmHg 88%
04:00 +22°C° 0 mm 1 mps 749 mmHg 87%
05:00 +23°C° 0 mm 1 mps 750 mmHg 85%
06:00 +24°C° 0 mm 1 mps 750 mmHg 84%
07:00 +26°C° 0 mm 1 mps 750 mmHg 80%
08:00 +27°C° 0 mm 2 mps 750 mmHg 76%
09:00 +28°C° 0 mm 2 mps 750 mmHg 73%
10:00 +29°C° 0 mm 2 mps 750 mmHg 70%
11:00 +30°C° 0 mm 2 mps 750 mmHg 67%
12:00 +30°C° 0 mm 3 mps 750 mmHg 65%
13:00 +31°C° 0 mm 3 mps 750 mmHg 65%
14:00 +31°C° 0 mm 3 mps 750 mmHg 66%
15:00 +31°C° 0 mm 3 mps 750 mmHg 66%
16:00 +31°C° 0 mm 3 mps 750 mmHg 71%
17:00 +30°C° 0 mm 3 mps 750 mmHg 75%
18:00 +30°C° 0 mm 2 mps 749 mmHg 79%
19:00 +28°C° 0.1 mm 3 mps 750 mmHg 83%
20:00 +27°C° 0.1 mm 3 mps 750 mmHg 87%
21:00 +25°C° 0.1 mm 3 mps 750 mmHg 91%
22:00 +24°C° 0 mm 3 mps 750 mmHg 92%
23:00 +24°C° 0 mm 3 mps 750 mmHg 92%

Tomorrow, 8 July, Wednesday

Time Temperature Precipitation Wind Pressure Humidity
00:00 +22°C° 0 mm 3 mps 750 mmHg 93%
01:00 +22°C° 0 mm 3 mps 750 mmHg 93%
02:00 +22°C° 0 mm 3 mps 750 mmHg 94%
03:00 +21°C° 0 mm 3 mps 751 mmHg 94%
04:00 +22°C° 0 mm 3 mps 751 mmHg 92%
05:00 +23°C° 0 mm 4 mps 751 mmHg 89%
06:00 +25°C° 0 mm 4 mps 751 mmHg 87%
07:00 +26°C° 0 mm 4 mps 751 mmHg 84%
08:00 +27°C° 0 mm 4 mps 751 mmHg 80%
09:00 +28°C° 0 mm 5 mps 751 mmHg 77%
10:00 +29°C° 0 mm 5 mps 751 mmHg 74%
11:00 +30°C° 0 mm 5 mps 751 mmHg 71%
12:00 +32°C° 0 mm 5 mps 751 mmHg 69%
13:00 +32°C° 0 mm 5 mps 751 mmHg 69%
14:00 +32°C° 0 mm 5 mps 751 mmHg 69%
15:00 +33°C° 0 mm 5 mps 751 mmHg 70%
16:00 +32°C° 0 mm 4 mps 751 mmHg 73%
17:00 +30°C° 0 mm 4 mps 751 mmHg 77%
18:00 +30°C° 0 mm 3 mps 751 mmHg 81%
19:00 +28°C° 0 mm 3 mps 750 mmHg 84%
20:00 +27°C° 0 mm 3 mps 750 mmHg 88%
21:00 +25°C° 0 mm 3 mps 750 mmHg 92%
22:00 +25°C° 0 mm 3 mps 750 mmHg 93%
23:00 +24°C° 0 mm 3 mps 750 mmHg 94%

Day after tomorrow, 9 July, Thursday

Time Temperature Precipitation Wind Pressure Humidity
00:00 +22°C° 0 mm 3 mps 750 mmHg 94%
01:00 +22°C° 0 mm 3 mps 750 mmHg 94%
02:00 +22°C° 0 mm 3 mps 751 mmHg 94%
03:00 +21°C° 0 mm 3 mps 751 mmHg 94%
04:00 +22°C° 0 mm 4 mps 751 mmHg 91%
05:00 +23°C° 0 mm 4 mps 751 mmHg 88%
06:00 +23°C° 0 mm 4 mps 750 mmHg 85%
07:00 +26°C° 0 mm 5 mps 750 mmHg 81%
08:00 +27°C° 0 mm 5 mps 750 mmHg 77%
09:00 +28°C° 0 mm 5 mps 750 mmHg 73%
10:00 +29°C° 0 mm 5 mps 750 mmHg 71%
11:00 +30°C° 0 mm 6 mps 750 mmHg 68%
12:00 +32°C° 0 mm 6 mps 750 mmHg 65%
13:00 +32°C° 0.3 mm 6 mps 750 mmHg 66%
14:00 +30°C° 0.3 mm 6 mps 750 mmHg 66%
15:00 +30°C° 0.3 mm 6 mps 750 mmHg 67%
16:00 +30°C° 0.2 mm 5 mps 750 mmHg 70%
17:00 +29°C° 0.2 mm 5 mps 749 mmHg 74%
18:00 +28°C° 0.2 mm 4 mps 749 mmHg 78%
19:00 +27°C° 0.1 mm 4 mps 749 mmHg 80%
20:00 +26°C° 0.1 mm 4 mps 749 mmHg 83%
21:00 +23°C° 0.1 mm 4 mps 749 mmHg 85%
22:00 +23°C° 0 mm 4 mps 749 mmHg 86%
23:00 +23°C° 0 mm 4 mps 749 mmHg 87%

10 July, Friday

Time Temperature Precipitation Wind Pressure Humidity
00:00 +22°C° 0 mm 4 mps 749 mmHg 87%
01:00 +22°C° 0.1 mm 4 mps 749 mmHg 87%
02:00 +22°C° 0.1 mm 3 mps 749 mmHg 87%
03:00 +21°C° 0.1 mm 3 mps 749 mmHg 87%
04:00 +22°C° 0.1 mm 3 mps 749 mmHg 87%
05:00 +22°C° 0.1 mm 3 mps 749 mmHg 87%
06:00 +22°C° 0.1 mm 3 mps 749 mmHg 87%
07:00 +22°C° 0.1 mm 3 mps 750 mmHg 88%
08:00 +22°C° 0.1 mm 3 mps 750 mmHg 89%
09:00 +22°C° 0.1 mm 3 mps 750 mmHg 90%
10:00 +22°C° 0 mm 3 mps 750 mmHg 89%
11:00 +22°C° 0 mm 3 mps 751 mmHg 88%
12:00 +22°C° 0 mm 3 mps 751 mmHg 87%
13:00 +22°C° 0 mm 3 mps 751 mmHg 83%
14:00 +24°C° 0 mm 3 mps 751 mmHg 79%
15:00 +24°C° 0 mm 3 mps 751 mmHg 75%
16:00 +24°C° 0 mm 3 mps 752 mmHg 76%
17:00 +24°C° 0 mm 3 mps 752 mmHg 77%
18:00 +22°C° 0 mm 3 mps 752 mmHg 77%
19:00 +21°C° 0 mm 3 mps 752 mmHg 80%
20:00 +19°C° 0 mm 3 mps 753 mmHg 83%
21:00 +18°C° 0 mm 2 mps 753 mmHg 85%
22:00 +17°C° 0 mm 2 mps 753 mmHg 85%
23:00 +17°C° 0 mm 2 mps 754 mmHg 85%

11 July, Saturday

Time Temperature Precipitation Wind Pressure Humidity
00:00 +16°C° 0 mm 3 mps 754 mmHg 84%
01:00 +16°C° 0 mm 3 mps 754 mmHg 86%
02:00 +14°C° 0 mm 3 mps 755 mmHg 87%
03:00 +15°C° 0 mm 2 mps 755 mmHg 88%
04:00 +16°C° 0 mm 3 mps 755 mmHg 86%
05:00 +17°C° 0 mm 3 mps 755 mmHg 84%
06:00 +18°C° 0 mm 3 mps 756 mmHg 82%
07:00 +19°C° 0 mm 3 mps 756 mmHg 75%
08:00 +21°C° 0 mm 3 mps 756 mmHg 69%
09:00 +22°C° 0 mm 3 mps 756 mmHg 63%
10:00 +24°C° 0 mm 3 mps 756 mmHg 60%
11:00 +24°C° 0 mm 3 mps 756 mmHg 58%
12:00 +25°C° 0 mm 3 mps 756 mmHg 55%
13:00 +25°C° 0 mm 3 mps 756 mmHg 55%
14:00 +25°C° 0 mm 3 mps 756 mmHg 56%
15:00 +26°C° 0 mm 3 mps 756 mmHg 56%
16:00 +25°C° 0 mm 3 mps 756 mmHg 60%
17:00 +24°C° 0 mm 3 mps 756 mmHg 63%
18:00 +24°C° 0 mm 2 mps 756 mmHg 67%
19:00 +21°C° 0 mm 2 mps 756 mmHg 70%
20:00 +19°C° 0 mm 2 mps 756 mmHg 73%
21:00 +17°C° 0 mm 2 mps 756 mmHg 77%
22:00 +17°C° 0 mm 2 mps 756 mmHg 77%
23:00 +16°C° 0 mm 2 mps 756 mmHg 78%

12 July, Sunday

Time Temperature Precipitation Wind Pressure Humidity
00:00 +15°C° 0 mm 1 mps 756 mmHg 79%
01:00 +15°C° 0 mm 1 mps 756 mmHg 79%
02:00 +15°C° 0 mm 1 mps 756 mmHg 80%
03:00 +14°C° 0 mm 1 mps 756 mmHg 80%
04:00 +15°C° 0 mm 1 mps 756 mmHg 78%
05:00 +16°C° 0 mm 1 mps 756 mmHg 76%
06:00 +19°C° 0 mm 1 mps 756 mmHg 75%
07:00 +20°C° 0 mm 1 mps 756 mmHg 70%
08:00 +21°C° 0 mm 2 mps 756 mmHg 65%
09:00 +23°C° 0 mm 2 mps 756 mmHg 60%
10:00 +24°C° 0 mm 2 mps 756 mmHg 56%
11:00 +25°C° 0 mm 2 mps 755 mmHg 53%
12:00 +25°C° 0 mm 2 mps 755 mmHg 49%
13:00 +26°C° 0 mm 2 mps 755 mmHg 50%
14:00 +26°C° 0 mm 2 mps 755 mmHg 50%
15:00 +26°C° 0 mm 2 mps 754 mmHg 50%
16:00 +26°C° 0 mm 2 mps 754 mmHg 55%
17:00 +25°C° 0 mm 1 mps 754 mmHg 59%
18:00 +25°C° 0 mm 1 mps 754 mmHg 63%
19:00 +23°C° 0 mm 1 mps 753 mmHg 68%
20:00 +21°C° 0 mm 1 mps 753 mmHg 73%
21:00 +19°C° 0 mm 1 mps 753 mmHg 78%
22:00 +18°C° 0 mm 1 mps 753 mmHg 79%
23:00 +18°C° 0 mm 1 mps 753 mmHg 80%
Show more